SVA987 OMDB-OEDF

Flight info

Callsign SVA987
Flight time 0h 52m
Altitude 30000
Route NABIX3F NABIX P699 ORMID M556 NARMI NARMI1J
Aircraft B77W/H-SDE1E2E3FGHIJ2J3J4J5M1RWXY/LB1D1

Departure

Time 2026-04-21 08:17
Airport Dubai International Airport (OMDB)

Arrival

Time 2026-04-21 09:09
Airport King Fahd International Airport (OEDF)
Time Latitude Longitude Altitude Speed Heading
2026-04-21 07:41 25.25292 55.35574 30 ft 0 kts 211°
2026-04-21 07:55 25.25308 55.35584 32 ft 4 kts 211°
2026-04-21 07:55 25.25331 55.35598 32 ft 4 kts 205°
2026-04-21 07:55 25.25349 55.35609 32 ft 4 kts 237°
2026-04-21 07:56 25.25358 55.35630 32 ft 4 kts 262°
2026-04-21 07:56 25.25357 55.35654 32 ft 4 kts 296°
2026-04-21 07:56 25.25344 55.35678 32 ft 4 kts 302°
2026-04-21 07:56 25.25339 55.35687 32 ft 0 kts 302°
2026-04-21 08:03 25.25339 55.35686 32 ft 2 kts 302°
2026-04-21 08:03 25.25366 55.35639 32 ft 13 kts 302°
2026-04-21 08:03 25.25389 55.35597 28 ft 7 kts 302°
2026-04-21 08:04 25.25394 55.35589 27 ft 1 kts 302°
2026-04-21 08:04 25.25399 55.35580 28 ft 2 kts 302°
2026-04-21 08:04 25.25408 55.35563 26 ft 3 kts 302°
2026-04-21 08:04 25.25416 55.35548 30 ft 4 kts 302°
2026-04-21 08:05 25.25432 55.35521 29 ft 5 kts 302°
2026-04-21 08:05 25.25451 55.35487 29 ft 6 kts 302°
2026-04-21 08:05 25.25473 55.35448 32 ft 6 kts 302°
2026-04-21 08:05 25.25498 55.35403 28 ft 7 kts 302°
2026-04-21 08:06 25.25526 55.35353 29 ft 8 kts 302°
2026-04-21 08:06 25.25556 55.35299 32 ft 9 kts 302°
2026-04-21 08:06 25.25589 55.35241 30 ft 9 kts 302°
2026-04-21 08:06 25.25624 55.35178 31 ft 10 kts 302°
2026-04-21 08:07 25.25661 55.35112 29 ft 10 kts 302°
2026-04-21 08:07 25.25717 55.35068 31 ft 10 kts 358°
2026-04-21 08:07 25.25754 55.35101 31 ft 7 kts 85°
2026-04-21 08:07 25.25756 55.35163 30 ft 9 kts 82°
2026-04-21 08:08 25.25796 55.35222 29 ft 11 kts 39°
2026-04-21 08:08 25.25865 55.35271 26 ft 13 kts 31°
2026-04-21 08:08 25.25947 55.35325 27 ft 15 kts 31°
2026-04-21 08:08 25.26030 55.35374 27 ft 13 kts 15°
2026-04-21 08:09 25.26109 55.35331 28 ft 14 kts 310°
2026-04-21 08:09 25.26195 55.35295 30 ft 14 kts 15°
2026-04-21 08:09 25.26282 55.35345 34 ft 14 kts 30°
2026-04-21 08:09 25.26377 55.35406 31 ft 18 kts 31°
2026-04-21 08:10 25.26408 55.35535 28 ft 20 kts 111°
2026-04-21 08:10 25.26332 55.35673 27 ft 22 kts 122°
2026-04-21 08:10 25.26248 55.35822 27 ft 24 kts 122°
2026-04-21 08:10 25.26160 55.35978 27 ft 24 kts 121°
2026-04-21 08:11 25.26073 55.36136 28 ft 24 kts 121°
2026-04-21 08:11 25.25984 55.36293 28 ft 24 kts 122°
2026-04-21 08:11 25.25894 55.36448 31 ft 24 kts 123°
2026-04-21 08:11 25.25807 55.36607 28 ft 24 kts 120°
2026-04-21 08:12 25.25719 55.36766 28 ft 24 kts 121°
2026-04-21 08:12 25.25631 55.36925 28 ft 25 kts 122°
2026-04-21 08:12 25.25537 55.37089 28 ft 26 kts 122°
2026-04-21 08:12 25.25443 55.37258 28 ft 26 kts 121°
2026-04-21 08:13 25.25349 55.37427 29 ft 26 kts 122°
2026-04-21 08:13 25.25254 55.37594 29 ft 26 kts 122°
2026-04-21 08:13 25.25158 55.37762 29 ft 26 kts 122°
2026-04-21 08:13 25.25064 55.37931 28 ft 26 kts 121°
2026-04-21 08:14 25.24970 55.38098 28 ft 26 kts 122°
2026-04-21 08:14 25.24912 55.38197 28 ft 6 kts 144°
2026-04-21 08:14 25.24866 55.38194 29 ft 7 kts 200°
2026-04-21 08:14 25.24864 55.38193 29 ft 0 kts 203°
2026-04-21 08:15 25.24863 55.38192 29 ft 2 kts 203°
2026-04-21 08:15 25.24803 55.38161 33 ft 14 kts 213°
2026-04-21 08:15 25.24790 55.38057 35 ft 16 kts 301°
2026-04-21 08:15 25.24819 55.38006 34 ft 1 kts 300°
2026-04-21 08:16 25.24825 55.37993 34 ft 8 kts 300°
2026-04-21 08:16 25.24931 55.37796 35 ft 63 kts 301°
2026-04-21 08:16 25.25335 55.37069 35 ft 156 kts 301°
2026-04-21 08:16 25.25991 55.35866 360 ft 201 kts 301°
2026-04-21 08:17 25.26769 55.34462 961 ft 226 kts 304°
2026-04-21 08:17 25.27645 55.33005 2180 ft 217 kts 304°
2026-04-21 08:17 25.28451 55.31556 3448 ft 227 kts 303°
2026-04-21 08:17 25.29124 55.29925 4357 ft 244 kts 281°
2026-04-21 08:18 25.28980 55.28001 5116 ft 265 kts 249°
2026-04-21 08:18 25.28199 55.26171 6157 ft 264 kts 244°
2026-04-21 08:18 25.27396 55.24332 7195 ft 267 kts 244°
2026-04-21 08:18 25.26597 55.22476 8278 ft 268 kts 244°
2026-04-21 08:19 25.25791 55.20597 9253 ft 273 kts 244°
2026-04-21 08:19 25.24973 55.18679 10167 ft 279 kts 245°
2026-04-21 08:19 25.24150 55.16704 10908 ft 288 kts 248°
2026-04-21 08:19 25.23628 55.14490 11353 ft 309 kts 259°
2026-04-21 08:20 25.23310 55.12048 11754 ft 331 kts 262°
2026-04-21 08:20 25.23015 55.09438 12128 ft 353 kts 262°
2026-04-21 08:20 25.22688 55.06666 12461 ft 374 kts 262°
2026-04-21 08:20 25.22327 55.03818 13045 ft 385 kts 261°
2026-04-21 08:21 25.21932 55.00862 13745 ft 392 kts 261°
2026-04-21 08:21 25.21522 54.97868 14402 ft 397 kts 261°
2026-04-21 08:21 25.21104 54.94836 15052 ft 401 kts 261°
2026-04-21 08:21 25.20792 54.91760 15703 ft 405 kts 264°
2026-04-21 08:22 25.20589 54.88633 16333 ft 408 kts 265°
2026-04-21 08:22 25.20407 54.85494 16941 ft 412 kts 265°
2026-04-21 08:22 25.20206 54.82366 17509 ft 415 kts 265°
2026-04-21 08:22 25.19977 54.79133 18053 ft 419 kts 265°
2026-04-21 08:23 25.19761 54.75916 18536 ft 422 kts 267°
2026-04-21 08:23 25.19802 54.72660 18969 ft 425 kts 272°
2026-04-21 08:23 25.20027 54.69446 19432 ft 427 kts 274°
2026-04-21 08:23 25.20293 54.66175 19865 ft 429 kts 274°
2026-04-21 08:24 25.20536 54.62879 20283 ft 431 kts 273°
2026-04-21 08:24 25.20743 54.59565 20680 ft 433 kts 272°
2026-04-21 08:24 25.20928 54.56242 21072 ft 435 kts 272°
2026-04-21 08:24 25.21133 54.52884 21429 ft 438 kts 275°
2026-04-21 08:25 25.21727 54.49584 21738 ft 441 kts 284°
2026-04-21 08:25 25.22617 54.46325 22051 ft 444 kts 285°
2026-04-21 08:25 25.23534 54.43056 22356 ft 446 kts 285°
2026-04-21 08:25 25.24421 54.39762 22683 ft 448 kts 284°
2026-04-21 08:26 25.25271 54.36449 22998 ft 449 kts 284°
2026-04-21 08:26 25.26102 54.33124 23320 ft 451 kts 283°
2026-04-21 08:26 25.26933 54.29782 23598 ft 451 kts 283°
2026-04-21 08:26 25.27576 54.27017 23816 ft 452 kts 283°
2026-04-21 08:27 25.28407 54.23658 24090 ft 452 kts 284°
2026-04-21 08:27 25.29255 54.20359 24350 ft 453 kts 284°
2026-04-21 08:27 25.30106 54.17008 24618 ft 452 kts 284°
2026-04-21 08:27 25.30943 54.13654 24887 ft 452 kts 283°
2026-04-21 08:28 25.31724 54.10294 25165 ft 451 kts 282°
2026-04-21 08:28 25.32442 54.06918 25428 ft 451 kts 281°
2026-04-21 08:28 25.33138 54.03544 25694 ft 450 kts 281°
2026-04-21 08:28 25.33838 54.00158 25970 ft 449 kts 281°
2026-04-21 08:29 25.34543 53.96793 26233 ft 449 kts 281°
2026-04-21 08:29 25.35257 53.93411 26290 ft 453 kts 282°
2026-04-21 08:29 25.35976 53.90031 26664 ft 448 kts 282°
2026-04-21 08:29 25.36682 53.86709 27275 ft 439 kts 282°
2026-04-21 08:30 25.37364 53.83485 27789 ft 433 kts 281°
2026-04-21 08:30 25.38050 53.80209 27672 ft 442 kts 281°
2026-04-21 08:30 25.38743 53.76874 27644 ft 447 kts 281°
2026-04-21 08:30 25.39443 53.73504 27616 ft 452 kts 281°
2026-04-21 08:31 25.40148 53.70113 27963 ft 448 kts 281°
2026-04-21 08:31 25.40838 53.66797 28604 ft 438 kts 281°
2026-04-21 08:31 25.41514 53.63547 29235 ft 428 kts 281°
2026-04-21 08:31 25.42175 53.60362 29816 ft 421 kts 281°
2026-04-21 08:32 25.42835 53.57174 29847 ft 433 kts 281°
2026-04-21 08:32 25.43521 53.53867 29870 ft 446 kts 281°
2026-04-21 08:32 25.44227 53.50478 29869 ft 458 kts 281°
2026-04-21 08:33 25.45673 53.43540 29864 ft 471 kts 281°
2026-04-21 08:33 25.47144 53.36462 29854 ft 472 kts 281°
2026-04-21 08:34 25.48610 53.29384 29859 ft 471 kts 281°
2026-04-21 08:34 25.50079 53.22266 29868 ft 480 kts 281°
2026-04-21 08:35 25.51573 53.14997 29862 ft 486 kts 281°
2026-04-21 08:35 25.53069 53.07703 29855 ft 485 kts 281°
2026-04-21 08:36 25.54560 53.00419 29854 ft 485 kts 281°
2026-04-21 08:36 25.56038 52.93174 29853 ft 485 kts 281°
2026-04-21 08:37 25.58465 52.86182 29849 ft 492 kts 298°
2026-04-21 08:37 25.61982 52.79670 29857 ft 492 kts 296°
2026-04-21 08:38 25.65267 52.73000 29857 ft 494 kts 295°
2026-04-21 08:38 25.68502 52.66277 29854 ft 495 kts 295°
2026-04-21 08:39 25.71760 52.59546 29851 ft 495 kts 295°
2026-04-21 08:39 25.75028 52.52810 29855 ft 495 kts 295°
2026-04-21 08:40 25.78235 52.46102 29846 ft 495 kts 294°
2026-04-21 08:40 25.81392 52.39322 29851 ft 494 kts 294°
2026-04-21 08:41 25.84554 52.32547 29846 ft 494 kts 294°
2026-04-21 08:41 25.87879 52.25876 29837 ft 497 kts 302°
2026-04-21 08:42 25.92620 52.20229 29862 ft 501 kts 311°
2026-04-21 08:42 25.97446 52.14650 29863 ft 499 kts 309°
2026-04-21 08:43 26.02119 52.08958 29856 ft 497 kts 308°
2026-04-21 08:43 26.06775 52.03305 29857 ft 494 kts 309°
2026-04-21 08:44 26.11387 51.97713 29859 ft 492 kts 308°
2026-04-21 08:44 26.16001 51.92107 29865 ft 490 kts 308°
2026-04-21 08:45 26.20606 51.86501 29862 ft 489 kts 308°
2026-04-21 08:45 26.25147 51.80872 29869 ft 486 kts 304°
2026-04-21 08:46 26.28297 51.74319 29877 ft 478 kts 289°
2026-04-21 08:46 26.31088 51.67578 29872 ft 480 kts 294°
2026-04-21 08:47 26.34100 51.60928 29874 ft 480 kts 294°
2026-04-21 08:47 26.37054 51.54295 29882 ft 481 kts 293°
2026-04-21 08:48 26.39591 51.47421 29880 ft 478 kts 285°
2026-04-21 08:48 26.41686 51.40386 29885 ft 478 kts 286°
2026-04-21 08:49 26.43933 51.33380 29887 ft 479 kts 287°
2026-04-21 08:49 26.46228 51.26416 29884 ft 471 kts 287°
2026-04-21 08:49 26.47327 51.23017 29880 ft 460 kts 287°
2026-04-21 08:50 26.48393 51.19667 29864 ft 457 kts 287°
2026-04-21 08:50 26.49449 51.16320 29342 ft 459 kts 286°
2026-04-21 08:50 26.50152 51.14090 28816 ft 458 kts 286°
2026-04-21 08:50 26.51209 51.10749 28038 ft 453 kts 286°
2026-04-21 08:51 26.52255 51.07450 27281 ft 447 kts 286°
2026-04-21 08:51 26.53265 51.04267 26566 ft 442 kts 286°
2026-04-21 08:51 26.54287 51.01040 25867 ft 437 kts 286°
2026-04-21 08:51 26.54997 50.97822 25250 ft 422 kts 273°
2026-04-21 08:52 26.54822 50.94599 24686 ft 413 kts 257°
2026-04-21 08:52 26.53966 50.91561 24106 ft 409 kts 248°
2026-04-21 08:52 26.52689 50.88731 23447 ft 408 kts 240°
2026-04-21 08:52 26.50997 50.86185 22645 ft 410 kts 227°
2026-04-21 08:53 26.48762 50.84226 21896 ft 407 kts 219°
2026-04-21 08:53 26.46454 50.82404 21163 ft 406 kts 219°
2026-04-21 08:53 26.44185 50.80599 20440 ft 404 kts 219°
2026-04-21 08:53 26.41907 50.78762 19739 ft 402 kts 220°
2026-04-21 08:54 26.39657 50.76925 19044 ft 400 kts 220°
2026-04-21 08:54 26.37424 50.75086 18370 ft 397 kts 220°
2026-04-21 08:54 26.35211 50.73258 17630 ft 395 kts 220°
2026-04-21 08:54 26.33008 50.71438 16878 ft 392 kts 220°
2026-04-21 08:55 26.30820 50.69634 16135 ft 389 kts 220°
2026-04-21 08:55 26.28846 50.67678 15369 ft 376 kts 232°
2026-04-21 08:55 26.27540 50.65189 14694 ft 373 kts 247°
2026-04-21 08:55 26.26778 50.62431 14005 ft 372 kts 255°
2026-04-21 08:56 26.26496 50.59570 13266 ft 374 kts 269°
2026-04-21 08:56 26.26830 50.56722 12569 ft 369 kts 275°
2026-04-21 08:56 26.27247 50.53936 12285 ft 357 kts 275°
2026-04-21 08:56 26.27642 50.51260 12088 ft 343 kts 274°
2026-04-21 08:57 26.28002 50.48708 12006 ft 334 kts 274°
2026-04-21 08:57 26.28349 50.46153 12013 ft 333 kts 274°
2026-04-21 08:57 26.28687 50.43603 12004 ft 333 kts 273°
2026-04-21 08:57 26.29024 50.41038 12017 ft 334 kts 273°
2026-04-21 08:58 26.29359 50.38479 11977 ft 335 kts 273°
2026-04-21 08:58 26.29695 50.35903 11548 ft 337 kts 273°
2026-04-21 08:58 26.30035 50.33294 10817 ft 341 kts 273°
2026-04-21 08:58 26.30343 50.30660 10128 ft 343 kts 271°
2026-04-21 08:59 26.30591 50.28007 9402 ft 345 kts 270°
2026-04-21 08:59 26.30695 50.25352 8646 ft 343 kts 265°
2026-04-21 08:59 26.30625 50.22684 7903 ft 346 kts 263°
2026-04-21 08:59 26.30510 50.19995 7200 ft 349 kts 263°
2026-04-21 09:00 26.30379 50.17281 6501 ft 352 kts 263°
2026-04-21 09:00 26.30237 50.14537 5779 ft 356 kts 263°
2026-04-21 09:00 26.30071 50.11777 5060 ft 358 kts 263°
2026-04-21 09:00 26.29885 50.09046 4446 ft 344 kts 263°
2026-04-21 09:01 26.29691 50.06527 4178 ft 316 kts 263°
2026-04-21 09:01 26.29492 50.04196 3984 ft 289 kts 263°
2026-04-21 09:01 26.29307 50.02064 3823 ft 266 kts 263°
2026-04-21 09:01 26.29105 50.00043 3311 ft 260 kts 264°
2026-04-21 09:02 26.28856 49.98053 2690 ft 259 kts 264°
2026-04-21 09:02 26.28556 49.96077 2243 ft 252 kts 263°
2026-04-21 09:02 26.28251 49.94217 2066 ft 237 kts 263°
2026-04-21 09:03 26.27689 49.90864 1958 ft 209 kts 263°
2026-04-21 09:03 26.27425 49.89306 1994 ft 208 kts 263°
2026-04-21 09:03 26.27146 49.87702 1978 ft 212 kts 264°
2026-04-21 09:03 26.27174 49.86180 1933 ft 185 kts 298°
2026-04-21 09:04 26.27990 49.85182 1990 ft 174 kts 339°
2026-04-21 09:04 26.29143 49.85077 1969 ft 166 kts 12°
2026-04-21 09:04 26.30294 49.85215 1958 ft 167 kts
2026-04-21 09:04 26.31454 49.85226 1957 ft 165 kts 359°
2026-04-21 09:05 26.32579 49.85099 1946 ft 157 kts 355°
2026-04-21 09:05 26.33627 49.84914 1966 ft 153 kts 355°
2026-04-21 09:05 26.34690 49.84700 1971 ft 155 kts 352°
2026-04-21 09:05 26.35732 49.84418 1955 ft 153 kts 351°
2026-04-21 09:06 26.36774 49.84106 1737 ft 156 kts 349°
2026-04-21 09:06 26.37813 49.83785 1541 ft 152 kts 348°
2026-04-21 09:06 26.38799 49.83479 1339 ft 144 kts 348°
2026-04-21 09:06 26.39766 49.83181 1173 ft 148 kts 348°
2026-04-21 09:07 26.40763 49.82872 967 ft 148 kts 350°
2026-04-21 09:07 26.41756 49.82566 786 ft 150 kts 349°
2026-04-21 09:07 26.42791 49.82246 628 ft 157 kts 350°
2026-04-21 09:07 26.43836 49.81927 429 ft 153 kts 350°
2026-04-21 09:08 26.44837 49.81597 228 ft 146 kts 352°
2026-04-21 09:08 26.45811 49.81292 96 ft 144 kts 353°
2026-04-21 09:08 26.46513 49.81096 95 ft 71 kts 344°
2026-04-21 09:08 26.46951 49.80958 94 ft 61 kts 344°
2026-04-21 09:09 26.47330 49.80846 94 ft 53 kts 346°
2026-04-21 09:09 26.47613 49.80715 94 ft 25 kts 320°
2026-04-21 09:09 26.47735 49.80583 95 ft 24 kts 315°
2026-04-21 09:09 26.47840 49.80437 92 ft 24 kts 281°
2026-04-21 09:10 26.47807 49.80252 92 ft 25 kts 254°
2026-04-21 09:10 26.47762 49.80068 92 ft 24 kts 255°
2026-04-21 09:10 26.47718 49.79884 101 ft 24 kts 255°
2026-04-21 09:10 26.47673 49.79701 101 ft 24 kts 255°
2026-04-21 09:11 26.47627 49.79518 100 ft 24 kts 255°
2026-04-21 09:11 26.47581 49.79331 98 ft 27 kts 255°
2026-04-21 09:11 26.47523 49.79142 93 ft 20 kts 231°
2026-04-21 09:11 26.47480 49.79126 92 ft 7 kts 182°
2026-04-21 09:12 26.47449 49.79129 93 ft 1 kts 171°
2026-04-21 09:12 26.47441 49.79131 92 ft 2 kts 171°
2026-04-21 09:12 26.47435 49.79132 92 ft 1 kts 170°
2026-04-21 09:12 26.47423 49.79135 93 ft 3 kts 166°
2026-04-21 09:13 26.47394 49.79143 92 ft 6 kts 166°
2026-04-21 09:13 26.47338 49.79160 92 ft 10 kts 161°
2026-04-21 09:13 26.47319 49.79169 94 ft 4 kts 156°
2026-04-21 09:13 26.47280 49.79189 94 ft 9 kts 156°
2026-04-21 09:14 26.47214 49.79225 94 ft 13 kts 154°
2026-04-21 09:14 26.47133 49.79269 93 ft 12 kts 154°
2026-04-21 09:14 26.47042 49.79319 95 ft 17 kts 153°
2026-04-21 09:14 26.46928 49.79383 95 ft 20 kts 153°
2026-04-21 09:15 26.46816 49.79429 94 ft 13 kts 163°
2026-04-21 09:15 26.46795 49.79436 94 ft 4 kts 161°
2026-04-21 09:15 26.46765 49.79463 92 ft 6 kts 105°
2026-04-21 09:15 26.46777 49.79505 94 ft 7 kts 72°
2026-04-21 09:16 26.46782 49.79523 94 ft 1 kts 71°
2026-04-21 09:16 26.46783 49.79527 94 ft 0 kts 72°
2026-04-21 09:16 26.46784 49.79529 94 ft 0 kts 72°
2026-04-21 09:16 26.46784 49.79530 94 ft 0 kts 72°
2026-04-21 09:21 26.46784 49.79529 94 ft 0 kts 72°